Regional Weather Roundup
Issued by NWS

Home | Current Version | Previous Version | Text Only | Print | Product List | Glossary On
Versions: 1 2 3 4 5 6 7 8 9 10 11 12 13 14 15 16 17 18 19 20 21 22 23 24 25 26 27 28 29 30 31 32 33 34 35 36 37 38 39 40 41 42 43 44 45 46 47 48 49 50
000
ASPQ40 PGUM 280210
RWRPQ
WEATHER ROUNDUP FOR THE MARIANAS AND MICRONESIA
NATIONAL WEATHER SERVICE TIYAN GU
1200 PM CHST WED JAN 28 2015

GUZ001>004-280300-
MARIANA ISLANDS-

CITY           SKY/WX    TMP DP  RH WIND       PRES   REMARKS
GUAM AIRPORT   MOSUNNY   86  73  66 E16       29.87F HX  93
ANDERSEN AFB   PTSUNNY   82  75  78 E10       29.86F
ROTA AIRPORT   NOT AVBL
TINIAN AP      NOT AVBL
SAIPAN AP      MOSUNNY   84  73  70 SE10      29.86F HX  91

$$

PMZ161-280300-
REPUBLIC OF PALAU-

CITY           SKY/WX    TMP DP  RH WIND       PRES   REMARKS
KOROR AP       PTSUNNY   86  77  74 NE13      29.86F HX  97
KOROR WSO      NOT AVBL

$$

PMZ171>174-280300-
FEDERATED STATES OF MICRONESIA-

CITY           SKY/WX    TMP DP  RH WIND       PRES   REMARKS
YAP AIRPORT    PTSUNNY   84  77  79 N8        29.83F HX  94
CHUUK AP       CLOUDY    84  75  74 NE12      29.75  HX  92
POHNPEI AP     MOSUNNY   90  77  66 E9        29.76F HX 102
POHNPEI WSO    NOT AVBL
KOSRAE AP      NOT AVBL

$$

PMZ181-280300-
REPUBLIC OF THE MARSHALL ISLANDS-

CITY           SKY/WX    TMP DP  RH WIND       PRES   REMARKS
KWAJALEIN AP   SUNNY     84  72  65 NE14      29.75F
MAJURO AP      NOT AVBL
MAJURO WSO     NOT AVBL

$$




USA.gov is the U.S. government's official web portal to all federal, state and local government web resources and services.